Flag for U.S.A. Weather past 2 weeks in Vallejo, California, U.S.A.

Now
42 °F

Clear.


Feels Like: 42 °F
Forecast: 49 / 69 °F
Wind: No wind

Location: Napa County Airport

Current Time: Oct 22, 2014 at 8:59:09 AM

Latest Report: Oct 22, 2014 at 7:54 AM


Visibility: 10 mi

Pressure: 30.02 "Hg

Humidity: 100%

Dew point: 42 °F

Location of VallejoLocation

Historic Weather in Vallejo — Graph

°F

Vallejo temperature yesterday

Maximum temperature yesterday: 72 °F (at 3:54 PM)
Minimum temperature yesterday: 43 °F (at 5:54 AM)
Average temperature yesterday: 56 °F

Past Weeks' High & Low Weather Summary

 TemperatureHumidityPressure
High95 °F (Oct 12, 2:54 PM)100% (Oct 7, 6:54 AM)30.09 "Hg (Oct 7, 6:54 AM)
Low43 °F (Oct 21, 5:54 AM)4% (Oct 12, 3:54 PM)29.78 "Hg (Oct 8, 4:54 PM)
Average61 °F77%29.92 "Hg
* Reported Oct 7 6:54 AM — Oct 22 6:54 AM, Vallejo, Weather by CustomWeather, © 2014

Note: Actual official high and low records may vary slightly from our data, if they occured in-between our weather recording intervals... More about our weather records

Advertising

Vallejo weather history for previous 24 hours

 ConditionsComfort  
Time TempWeatherWind HumidityBarometerVisibility
6:54 AM
Oct 22
43 °FClear.3 mph100%30.01 "Hg10 mi
5:54 AM44 °FClear.No wind100%30.02 "Hg10 mi
4:54 AM46 °FClear.No wind96%30.01 "Hg10 mi
3:54 AM46 °FClear.3 mph100%30.02 "Hg10 mi
2:54 AM44 °FClear.No wind100%30.02 "Hg10 mi
1:54 AM46 °FClear.No wind96%30.02 "Hg10 mi
12:54 AM48 °FClear.3 mph96%30.02 "Hg10 mi
11:54 PM
Oct 21
49 °FClear.3 mph93%30.02 "Hg10 mi
10:54 PM51 °FClear.6 mph89%30.01 "Hg10 mi
9:54 PM53 °FClear.5 mph86%30.01 "Hg10 mi
8:54 PM55 °FClear.6 mph87%29.99 "Hg10 mi
7:54 PM57 °FClear.5 mph78%29.99 "Hg10 mi
6:54 PM59 °FSunny.3 mph75%29.98 "Hg10 mi
5:54 PM66 °FSunny.10 mph56%29.98 "Hg10 mi
4:54 PM70 °FSunny.7 mph47%29.98 "Hg10 mi
3:54 PM72 °FSunny.9 mph37%29.98 "Hg10 mi
2:54 PM71 °FSunny.9 mph39%29.99 "Hg10 mi
1:54 PM70 °FSunny.7 mph39%30.01 "Hg10 mi
12:54 PM68 °FSunny.8 mph42%30.04 "Hg10 mi
11:54 AM66 °FSunny.8 mph52%30.06 "Hg10 mi
10:54 AM63 °FSunny.5 mph60%30.08 "Hg10 mi
9:54 AM58 °FSunny.6 mph72%30.08 "Hg10 mi
8:54 AM50 °FSunny.5 mph96%30.09 "Hg10 mi
Weather by CustomWeather, © 2014

See weather overviewHow to use our weather pages